Vertical_Velocity
2 3 -1 -5 -1 -1 -1 -0 1 1 4 -5 -2 0 -1 6 -3 2 1 0 -3 -4 -1 0 1 1 0 1 -2 -0 1 1 -2 -1 -0 -1 -1 1 1 -0 0 3 3
-1 -4 -3 1 0 -1 -2 1 -2 1 3 -3 -3 -4 -2 -1 0 -1 -3 -3 -3 -2 -1 -3 0 0 0 2 1 -3 -0 0 -0 -2 -2 -1 3 0 1 1 -1 0 2
-3 -1 2 -2 -2 -0 -2 -2 -0 1 0 -2 -3 -2 -1 0 1 2 2 -1 -1 -1 -2 -3 -1 -1 -0 -0 1 0 -1 0 -1 -1 -0 0 -1 -6 1 0 1 0 1
-0 3 -3 -3 -1 -1 -0 2 -0 -1 1 1 -4 -1 -1 -2 0 -0 1 1 -1 -1 -2 -1 -1 -0 -0 -1 1 1 -1 -1 0 2 0 -0 -1 -1 -5 -0 1 -0 -0
1 -1 -2 -1 -0 -2 -0 -3 -1 0 -2 -2 -0 -1 -3 0 -0 1 1 0 1 -1 -2 -1 -1 -1 -1 -1 -1 -0 0 -1 1 0 -1 -0 -0 2 2 -7 -7 -5 0
0 -0 0 -0 1 1 1 -1 -2 0 -1 -0 1 -1 0 1 -1 0 -1 0 1 1 -1 0 0 1 0 -0 -2 -1 -0 0 0 -1 0 0 2 -1 4 1 -2 -2 -7
-1 -1 -2 -2 -0 0 -2 -2 -1 -1 -0 -1 1 2 0 -0 -1 1 -1 -1 -1 0 -1 1 1 0 -1 0 1 0 0 -0 -1 -1 -3 -2 -1 2 1 2 -4 -1 -7
0 0 0 -2 -3 -2 -1 -1 -2 -3 -3 -2 0 0 2 1 -0 0 -1 1 1 -1 -1 -1 -1 -0 1 1 -0 -1 -0 -0 0 -1 -2 -3 -2 -2 -3 2 2 -6 -7
-1 -2 -3 -1 -0 -1 -1 -2 -3 -2 -1 0 -1 1 1 0 1 1 -0 -0 -2 -3 -3 -2 0 -0 -1 -3 -4 -3 -1 -1 -0 -2 -1 0 -1 -0 0 1 2 5 -0
1 0 -2 -3 -2 -1 -0 -0 -1 -3 -1 -1 -0 1 1 0 0 1 3 2 1 -1 -0 1 -1 -2 -1 -1 -1 1 1 -1 -2 -2 -3 -1 -2 -1 -2 -1 -0 1 4
-2 -4 -2 -1 -1 1 -0 -1 -0 -2 -3 -1 -0 -0 -0 -1 0 1 2 3 2 2 3 3 3 2 1 1 0 0 0 -1 1 2 0 -0 -1 -2 -2 -0 0 0 3
-1 -1 -1 -2 0 -1 -2 -2 -2 -1 -1 0 -1 -0 -1 -1 -2 -3 -2 -3 -2 -0 -1 0 1 2 3 2 1 0 2 2 2 1 -0 -0 -1 0 2 1 -1 -2 3
-0 -1 1 -2 -3 -1 -1 -2 -3 -2 -0 0 -0 0 -0 0 2 1 -0 0 -1 -1 -0 -3 -3 -2 -2 -3 -2 -2 0 2 1 2 1 2 1 0 1 1 -1 1 2
0 1 -0 -1 -2 -2 -2 -0 2 0 -1 -3 -3 -1 0 2 2 2 1 1 -0 -2 -2 -1 0 -0 -1 -2 -0 -0 -0 -1 -1 -0 0 2 0 1 1 -1 -0 0 0
-2 -1 -3 -3 -3 -2 -1 -2 -2 -2 -1 1 1 -0 -1 -2 -1 -1 2 5 6 6 4 3 3 2 0 2 2 0 -1 -1 -0 2 1 -2 -1 -1 -1 -0 3 1 -1
0 -0 -2 -1 -2 -2 -2 1 -0 0 0 -0 -1 -1 0 -1 -1 -2 -1 -3 -3 -5 -4 -3 -1 2 3 2 1 -1 -0 -0 -2 -2 -1 -0 -1 1 1 1 2 1 0
-2 -1 -1 -1 -1 -2 -1 -1 -2 -2 -1 -0 2 2 2 0 -0 -1 -1 -1 -0 -0 0 0 -1 -0 -2 -2 -2 -1 -2 -1 1 -0 -2 -1 1 2 1 1 2 2 2
-0 1 2 1 3 0 -1 -1 1 1 -0 -0 -1 -1 1 1 1 1 -0 -0 -1 -2 -3 -2 -4 -2 2 0 1 1 1 1 1 -1 -0 -2 1 2 -0 1 1 1 2
-2 1 2 -3 -0 -1 -2 -1 2 2 0 -0 -0 -0 -2 -1 0 -0 -0 -0 -0 1 -1 -1 1 -0 5 2 1 -0 -3 -2 2 1 7 4 -1 4 0 -5 -2 -0 2
-3 -2 7 -1 -1 2 -1 -2 -1 -1 1 -0 -0 -1 -4 -3 -3 -1 0 -0 -1 -1 -1 1 -2 -1 -4 2 -1 -0 -2 -2 -3 3 2 4 0 1 1 -1 0 -4 1
1 6 4 -2 2 1 -0 -1 -2 1 -2 -1 0 -0 0 -1 -1 -3 -1 -2 -1 -1 0 -2 0 0 1 0 2 4 2 -1 -4 -3 -1 0 6 5 4 2 -4 -3 3
-1 7 2 0 0 0 -1 -1 -3 3 0 -1 -2 -1 -0 -1 1 -1 1 1 -0 -2 0 0 1 2 0 3 1 1 1 -0 -2 -4 -3 -4 0 2 4 5 6 4 3
-4 0 -2 -1 -2 1 -0 -3 -1 -0 -0 -2 0 2 1 -0 -0 -3 -2 -1 -1 0 1 -1 -4 -5 -1 -1 0 -0 -1 3 -0 1 -2 -4 2 -0 0 1 3 6 2
1 5 -3 -2 -4 -0 0 1 1 4 -4 -6 -3 -0 -3 -5 0 -1 -1 -3 -1 -1 -1 -1 -4 -6 -6 -7 -8 -7 -4 1 -2 -2 -2 1 -3 -2 -1 0 3 2 3
0 1 -2 -2 -5 -0 1 4 7 -5 1 5 4 1 -1 -0 -4 -0 -1 -1 4 2 -4 -3 -2 -3 -8 -1 -3 -8 -10 -9 -7 -12 -4 -3 -1 -3 -2 -1 -3 1 5
1 -1 3 4 4 6 -1 4 4 6 1 -2 -4 -1 -5 -4 -1 0 -5 11 1 3 1 0 -0 -4 -1 -0 -2 -2 -2 -0 1 -2 -2 -7 -3 -4 -1 1 -0 -0 3
Height
1529 1528 1527 1527 1525 1524 1522 1521 1519 1516 1514 1513 1511 1508 1506 1504 1502 1498 1495 1493 1491 1489 1487 1483 1481 1479 1477 1475 1472 1471 1470 1469 1468 1467 1467 1466 1465 1465 1466 1466 1466 1467 1468
1528 1529 1527 1526 1524 1522 1521 1519 1517 1516 1514 1511 1508 1506 1504 1501 1498 1496 1493 1490 1488 1486 1484 1481 1479 1476 1475 1472 1470 1469 1467 1467 1466 1466 1465 1465 1465 1465 1465 1466 1465 1466 1466
1529 1527 1525 1524 1522 1520 1518 1517 1515 1513 1511 1508 1506 1504 1501 1498 1496 1493 1491 1488 1486 1484 1481 1479 1476 1474 1472 1470 1468 1467 1466 1466 1466 1465 1466 1464 1464 1464 1463 1463 1463 1464 1464
1527 1525 1523 1523 1520 1519 1517 1514 1512 1509 1507 1504 1502 1500 1498 1495 1493 1490 1488 1486 1483 1481 1479 1476 1474 1472 1470 1468 1467 1465 1465 1465 1465 1466 1465 1465 1466 1466 1461 1460 1461 1461 1460
1525 1523 1523 1521 1519 1517 1514 1512 1510 1506 1503 1500 1497 1495 1493 1492 1489 1487 1485 1483 1481 1478 1476 1474 1472 1470 1468 1466 1464 1463 1463 1464 1464 1464 1464 1464 1465 1464 1462 1458 1456 1456 1455
1523 1523 1522 1520 1518 1516 1513 1511 1508 1504 1500 1497 1494 1491 1489 1487 1485 1484 1482 1480 1478 1476 1474 1472 1470 1468 1466 1464 1462 1461 1461 1461 1461 1462 1463 1463 1462 1461 1460 1457 1455 1453 1450
1521 1521 1520 1518 1516 1514 1511 1508 1505 1501 1497 1494 1491 1488 1485 1483 1481 1479 1478 1476 1475 1474 1472 1469 1467 1465 1464 1462 1460 1459 1458 1459 1458 1459 1459 1459 1459 1458 1457 1455 1452 1451 1449
1521 1520 1518 1516 1514 1512 1509 1506 1501 1496 1493 1490 1487 1485 1482 1480 1478 1476 1474 1473 1471 1470 1468 1467 1465 1463 1461 1459 1458 1457 1456 1456 1455 1455 1455 1454 1455 1454 1453 1452 1451 1446 1445
1518 1517 1516 1514 1512 1509 1507 1502 1497 1493 1490 1486 1483 1481 1479 1477 1475 1473 1471 1469 1467 1466 1465 1463 1462 1460 1459 1457 1455 1454 1453 1452 1451 1450 1450 1450 1450 1449 1449 1449 1448 1447 1442
1516 1515 1514 1512 1510 1507 1503 1498 1494 1489 1485 1482 1479 1477 1475 1473 1472 1470 1468 1466 1465 1463 1461 1460 1458 1457 1456 1454 1452 1451 1449 1448 1447 1446 1445 1445 1444 1444 1443 1443 1442 1442 1441
1514 1514 1512 1510 1507 1504 1499 1494 1489 1485 1481 1478 1475 1473 1471 1469 1468 1467 1466 1465 1463 1461 1459 1457 1456 1454 1453 1451 1449 1447 1446 1444 1443 1442 1440 1440 1439 1438 1438 1438 1436 1435 1435
1512 1511 1509 1507 1504 1500 1495 1491 1487 1483 1479 1475 1472 1469 1467 1465 1464 1463 1462 1461 1460 1458 1457 1455 1453 1451 1449 1447 1445 1444 1442 1440 1438 1437 1435 1434 1434 1433 1432 1431 1429 1428 1427
1510 1508 1506 1504 1500 1496 1492 1488 1485 1481 1478 1474 1470 1467 1465 1463 1461 1459 1458 1456 1455 1454 1452 1450 1449 1447 1446 1444 1442 1440 1438 1436 1434 1433 1431 1430 1429 1427 1427 1425 1423 1423 1421
1506 1505 1503 1502 1498 1495 1491 1488 1484 1480 1476 1473 1470 1467 1464 1461 1459 1457 1455 1453 1451 1449 1448 1446 1444 1442 1440 1438 1437 1435 1433 1432 1430 1429 1427 1426 1424 1422 1421 1420 1418 1417 1416
1502 1502 1500 1498 1495 1492 1489 1486 1483 1479 1476 1472 1468 1464 1461 1459 1457 1455 1453 1451 1449 1447 1445 1443 1441 1438 1436 1434 1431 1429 1428 1426 1425 1424 1422 1421 1420 1418 1416 1414 1413 1412 1411
1499 1498 1497 1495 1492 1489 1486 1483 1480 1477 1473 1470 1466 1463 1460 1457 1454 1452 1449 1447 1445 1443 1441 1439 1437 1435 1432 1430 1428 1425 1422 1421 1419 1418 1418 1416 1414 1413 1411 1409 1408 1407 1405
1497 1495 1494 1491 1488 1485 1482 1480 1477 1474 1471 1468 1465 1461 1457 1454 1451 1449 1446 1444 1442 1439 1437 1435 1432 1429 1427 1425 1422 1420 1416 1414 1413 1412 1411 1409 1409 1407 1406 1404 1402 1401 1399
1493 1490 1489 1487 1484 1481 1479 1476 1473 1470 1468 1465 1462 1459 1455 1452 1448 1445 1443 1440 1438 1435 1432 1430 1428 1425 1422 1419 1416 1414 1411 1408 1406 1405 1404 1402 1401 1401 1400 1398 1396 1395 1393
1487 1485 1484 1482 1479 1477 1475 1472 1470 1467 1464 1461 1459 1456 1452 1449 1446 1443 1440 1437 1434 1431 1428 1426 1423 1419 1417 1413 1410 1407 1404 1402 1399 1399 1397 1395 1393 1393 1393 1391 1389 1388 1387
1482 1480 1479 1476 1474 1472 1469 1467 1465 1463 1461 1458 1455 1452 1449 1446 1443 1440 1436 1434 1430 1427 1424 1421 1419 1416 1412 1409 1405 1401 1398 1396 1394 1391 1389 1389 1387 1386 1385 1382 1382 1380 1380
1476 1474 1472 1471 1469 1467 1464 1463 1461 1459 1456 1453 1451 1448 1446 1442 1439 1435 1432 1429 1426 1423 1419 1416 1413 1410 1407 1404 1400 1397 1392 1388 1385 1383 1381 1379 1379 1378 1376 1373 1372 1372 1373
1470 1469 1466 1465 1463 1461 1459 1458 1456 1454 1451 1448 1445 1443 1440 1438 1434 1430 1428 1425 1422 1417 1413 1409 1405 1403 1400 1397 1394 1390 1387 1384 1379 1376 1373 1371 1370 1368 1367 1366 1364 1363 1363
1464 1462 1460 1458 1458 1457 1454 1452 1451 1448 1445 1443 1440 1437 1434 1432 1429 1425 1423 1418 1415 1411 1407 1402 1398 1394 1392 1390 1387 1383 1380 1377 1373 1369 1366 1364 1361 1358 1357 1357 1356 1356 1354
1456 1455 1453 1453 1452 1452 1450 1448 1446 1443 1440 1437 1434 1431 1428 1425 1422 1420 1416 1413 1408 1404 1400 1397 1392 1388 1385 1383 1380 1376 1372 1368 1364 1359 1356 1354 1353 1352 1348 1347 1347 1347 1346
1452 1450 1448 1447 1447 1446 1445 1444 1441 1438 1433 1430 1427 1423 1421 1418 1413 1410 1406 1404 1401 1398 1393 1390 1386 1381 1376 1374 1370 1367 1363 1360 1357 1353 1349 1344 1342 1340 1339 1338 1337 1338 1338
1447 1445 1445 1444 1442 1440 1437 1435 1433 1430 1426 1422 1420 1417 1411 1409 1405 1401 1395 1393 1390 1389 1385 1381 1378 1374 1369 1365 1363 1359 1356 1352 1349 1345 1341 1337 1334 1330 1329 1327 1326 1326 1327